Weather observations for the past three days for
Chesterfield County Airport
Metric (Imperial)
Date Time (edt) Wind (kph) Vis. (km) Weather Sky Cond. Temperature (ºC) Relative Humidity Wind Chill (°C) Heat Index (°C) Pressure Precipitation (cm)
Air Dwpt 6 hour altimeter (cm) sea level (mb) 1 hr 3 hr 6 hr
Max. Min.
01 19:56 Calm 16.09 Fair CLR 30 23.3 36.1 29.4 67% 34 76.12 1015.8
01 18:56 S 7 16.09 Fair CLR 32.2 23.9 62% 38 76.17 1016.4
01 17:56 W 6 16.09 Fair CLR 35 21.1 44% 39 76.17 1016.4
01 16:56 Vrbl 7 16.09 Fair CLR 34.4 21.1 46% 38 76.2 1016.7
01 15:56 W 9 16.09 Fair CLR 35.6 21.1 43% 39 76.23 1017.0
01 14:56 SW 9 16.09 Fair CLR 35 21.7 46% 39 76.28 1017.6
01 13:56 Calm 16.09 A Few Clouds FEW055 34.4 21.7 35 25 48% 38 76.28 1017.6
01 12:56 W 11 16.09 Fair CLR 34.4 22.2 49% 39 76.3 1017.9
01 11:56 NW 11 16.09 Fair CLR 33.9 23.9 56% 40 76.35 1018.6
01 10:56 Calm 16.09 Fair CLR 31.1 23.9 66% 37 76.38 1019.1
01 09:56 W 11 16.09 Fair CLR 30 23.3 67% 34 76.38 1019.2
01 08:56 NW 9 16.09 A Few Clouds FEW110 27.2 23.3 79% 30 76.38 1019.2
01 07:56 NW 7 16.09 Fair CLR 25 23.3 25 22.2 90% 26 76.38 1019.2
01 06:56 Calm 16.09 Fair CLR 22.2 21.7 97% 76.35 1018.7
01 05:56 Calm 16.09 Fair CLR 22.2 21.7 97% 76.35 1018.7
01 04:56 Calm 16.09 Fair CLR 22.8 22.2 96% 76.33 1018.4
01 03:56 Calm 16.09 Fair CLR 22.8 22.2 96% 76.35 1018.6
01 02:56 Calm 16.09 Fair CLR 23.3 22.2 94% 76.38 1019.0
01 01:56 Calm 16.09 Fair CLR 23.3 22.2 28.9 23.3 94% 76.4 1019.5
01 00:56 Calm 16.09 Fair CLR 24.4 22.8 91% 24 76.43 1019.9
31 23:56 S 6 16.09 Fair CLR 25 22.8 88% 26 76.43 1019.8
31 22:56 SE 6 16.09 Overcast OVC100 25.6 23.3 87% 27 76.43 1019.9
31 21:56 E 6 16.09 Fair CLR 26.7 23.3 82% 29 76.43 1019.9
31 20:56 E 9 16.09 Mostly Cloudy BKN095 28.9 22.2 67% 32 76.4 1019.4
31 19:56 Calm 16.09 Fair CLR 28.9 22.8 34.4 28.9 70% 32 76.38 1019.0
31 18:56 Calm 16.09 Fair CLR 31.7 22.8 59% 36 76.35 1018.8
31 17:56 N 6 16.09 A Few Clouds FEW065 33.9 21.1 47% 37 76.35 1018.7
31 16:56 Calm 16.09 Fair CLR 33.3 20 46% 36 76.35 1018.7
31 15:56 W 6 16.09 Fair CLR 34.4 21.1 46% 38 76.35 1018.8
31 14:56 Vrbl 6 16.09 Fair CLR 33.9 22.2 50% 38 76.4 1019.4
31 13:56 Vrbl 9 16.09 Fair CLR 32.8 22.2 33.3 23.9 54% 37 76.43 1019.9
31 12:56 Vrbl 7 16.09 Fair CLR 32.2 23.9 62% 38 76.45 1020.1
31 11:56 S 7 16.09 Fair CLR 30.6 23.3 65% 35 0 0.0
31 10:56 Calm 16.09 Fair CLR 28.9 22.8 70% 32 0 0.0
31 09:56 NW 13 16.09 Fair CLR 29.4 23.3 70% 34 0 0.0
31 08:56 W 11 16.09 Fair CLR 26.1 22.2 79% 28 0 0.0
31 07:56 W 6 16.09 Fair CLR 23.9 21.7 23.9 22.2 88% 24 0 0.0
31 05:56 Calm 16.09 Overcast BKN100 OVC120 22.8 21.1 90% 0 0.0
31 04:56 Calm 16.09 Partly Cloudy SCT095 22.8 21.1 90% 0 0.0
31 03:56 S 6 16.09 Fair CLR 22.8 21.1 90% 0 0.0
31 02:56 S 6 16.09 Overcast OVC110 22.2 21.1 94% 0 0.0
31 01:56 Calm 16.09 Fair CLR 22.8 21.1 27.2 22.8 90% 0 0.0
31 00:56 Calm 16.09 Fair CLR 23.3 21.1 88% 0 0.0
30 23:56 Calm 16.09 Fair CLR 23.9 21.7 88% 24 0 0.0
30 22:56 S 6 16.09 Fair CLR 24.4 21.7 85% 25 0 0.0
30 21:56 S 6 16.09 Fair CLR 25 22.2 85% 26 0 0.0
30 20:56 SE 6 16.09 Fair CLR 25 23.3 90% 26 0 0.0
30 19:56 Calm 16.09 Fair CLR 27.2 23.3 31.7 27.2 79% 30 0 0.0
30 18:56 Vrbl 6 16.09 Fair CLR 30 22.2 63% 33 0 0.0
30 17:56 SW 7 16.09 Fair CLR 30.6 21.7 59% 34 0 0.0
30 16:56 S 11 16.09 Fair CLR 31.1 21.7 57% 34 0 0.0
30 15:56 S 9 16.09 Fair CLR 31.1 21.1 55% 34 0 0.0
30 14:56 Vrbl 7 16.09 Fair CLR 31.1 21.7 57% 34 0 0.0
30 13:56 SW 7 16.09 A Few Clouds FEW036 30.6 22.2 30.6 21.1 61% 34 0 0.0
30 12:56 W 6 16.09 Mostly Cloudy BKN034 30 21.7 61% 33 0 0.0
30 10:56 S 9 16.09 Overcast BKN021 OVC029 26.7 21.7 74% 29 0 0.0
30 09:56 S 9 16.09 Mostly Cloudy BKN010 23.9 23.3 96% 23 0 0.0
30 08:56 Calm 8.05 Fog/Mist BKN002 BKN014 OVC024 22.2 22.2 100% 0 0.0
30 07:56 Calm 0.40 Fog OVC002 21.1 21.1 21.1 18.9 100% 0 0.0
30 06:56 Calm 0.40 Fog OVC002 20 20 100% 0 0.0
30 05:56 Calm 9.66 Fog/Mist OVC004 19.4 19.4 100% 0 0.0
30 04:56 Calm 1.61 Fog/Mist OVC006 18.9 18.9 100% 0 0.0
30 03:56 Calm 4.83 Fog/Mist CLR 18.9 18.9 100% 0 0.0
30 02:56 Calm 16.09 Fair CLR 19.4 18.9 97% 0 0.0
30 01:56 Calm 16.09 A Few Clouds FEW011 20 20 26.1 20 100% 0 0.0
30 00:56 Calm 16.09 Fair CLR 21.7 21.1 96% 0 0.0
29 23:56 Calm 16.09 Fair CLR 21.7 21.1 96% 0 0.0
29 22:56 Calm 16.09 Fair CLR 22.2 21.1 94% 0 0.0
29 21:56 E 6 16.09 Fair CLR 23.9 21.7 88% 24 0 0.0
29 20:56 E 6 16.09 Fair CLR 23.9 21.7 88% 24 0 0.0
Date Time (edt) Wind (kph) Vis. (km) Weather Sky Cond. Air Dwpt Max. Min. Relative Humidity Wind Chill (°C) Heat Index (°C) altimeter (cm) sea level (mb) 1 hr 3 hr 6 hr
6 hour
Temperature (ºC) Pressure Precipitation (cm)